Tracking 31011 objects as of 12-Jul-2025
HD Live streaming from Space Station
objects crossing your sky now

SL-12 R/B(2)

Track SL-12 R/B(2) now!


NORAD ID: 23429
Int'l Code: 1994-082D
Perigee: 35,526.3 km
Apogee: 35,771.5 km
Inclination: 14.6 °
Period: 1,428.7 minutes
Semi major axis: 42019 km
RCS: 2.5118 m2 (large)
Launch date: December 16, 1994
Source: Commonwealth of Independent States (former USSR) (CIS)
Launch site: TYURATAM MISSILE AND SPACE COMPLEX (TTMTR)

Note: This is a ROCKET BODY
Your satellite tracking list
Your tracking list is empty




NASA's NSSDC Master Catalog

Two Line Element Set (TLE):
1 23429U 94082D   25193.26910565 -.00000147  00000-0  00000-0 0  9990
2 23429  14.6104 356.7484 0029179 132.7241 228.8399  1.00790756112474
Source of the keplerian elements: AFSPC